Temp
9 8 8 8 8 8 7 7 6 4 3 7 9 9 9 9 8 8 8 8 8 8 8 8 8 7 7 7 7 7 6 6 6 7 7 7 8 8
8 8 8 8 8 7 7 7 6 5 3 7 7 7 7 8 8 7 7 7 7 7 7 7 7 7 7 7 7 6 6 6 6 6 6 7 7 8
7 7 7 7 7 7 6 6 6 5 3 5 6 7 7 7 7 7 7 7 7 7 7 7 7 7 7 7 6 6 6 5 6 6 6 6 7 7
6 6 5 5 5 5 5 5 5 5 3 3 4 6 6 6 5 5 5 5 6 6 6 7 7 7 7 7 7 6 6 6 5 6 6 6 6 6
4 4 4 4 4 4 4 4 4 4 4 3 3 4 4 5 5 5 4 5 4 5 5 6 6 7 6 6 6 6 6 6 6 6 6 6 6 6
4 3 3 3 3 3 3 2 2 2 2 2 2 2 3 3 3 3 3 3 3 3 4 5 5 6 6 7 6 6 6 6 5 5 5 6 6 6
3 3 3 3 3 2 2 2 2 2 2 1 1 1 2 3 2 3 2 1 1 2 3 4 4 5 5 6 6 6 6 6 5 5 4 5 5 6
2 2 2 2 2 2 2 1 1 1 1 1 0 0 1 2 1 2 1 1 1 1 1 1 1 2 3 4 5 5 5 5 5 5 4 4 4 5
2 2 2 2 2 2 2 1 1 1 1 1 0 0 0 1 1 1 0 1 1 1 1 0 0 1 2 2 3 4 5 5 5 5 4 4 4 4
1 1 1 1 1 1 1 1 1 0 0 0 0 0 0 0 0 0 0 -0 -0 0 0 0 1 0 1 2 2 3 4 5 5 5 4 4 4 4
-0 0 0 0 0 1 0 0 0 0 0 0 -0 -0 -0 -0 -0 -0 -1 -1 -1 -1 -1 -0 -0 -0 0 1 2 3 3 4 5 4 4 4 4 4
-1 -1 -1 -1 -1 0 0 0 -0 -0 -0 -0 -0 -0 -0 -0 -0 -1 -1 -1 -1 -1 -1 -0 -0 -1 -0 1 2 2 3 3 4 4 4 4 3 3
-1 -1 -1 -1 -1 -1 -0 -1 -1 -1 -0 -1 -1 -1 -1 -1 -1 -1 -1 -2 -2 -2 -2 -2 -1 -2 -2 -1 -0 0 1 3 3 3 3 3 2 2
-2 -2 -2 -2 -1 -1 -1 -1 -1 -1 -1 -1 -2 -2 -2 -2 -2 -2 -2 -2 -3 -3 -2 -2 -2 -2 -2 -2 -1 -0 1 2 1 2 2 2 2 2
-2 -2 -2 -2 -2 -2 -2 -2 -2 -2 -2 -3 -3 -3 -3 -2 -2 -2 -2 -3 -3 -3 -3 -3 -3 -3 -3 -3 -2 -1 -1 -1 -1 1 2 1 1 1
-2 -2 -2 -2 -2 -3 -3 -2 -3 -3 -3 -4 -4 -3 -3 -3 -3 -3 -4 -4 -3 -3 -3 -3 -3 -3 -3 -2 -2 -2 -1 -2 -1 0 1 0 0 0
-2 -2 -2 -3 -3 -3 -3 -3 -3 -3 -3 -3 -4 -4 -4 -4 -4 -4 -4 -4 -4 -3 -3 -3 -3 -3 -2 -3 -2 -1 -1 -2 -1 0 0 0 0 0
-2 -3 -3 -4 -4 -4 -4 -4 -4 -4 -4 -4 -4 -4 -4 -4 -4 -4 -4 -4 -4 -4 -4 -3 -3 -3 -3 -2 -2 -2 -2 -2 -2 -2 -1 -1 -1 -0
-4 -4 -4 -5 -5 -5 -5 -5 -5 -4 -4 -4 -5 -5 -5 -4 -5 -4 -5 -6 -5 -5 -4 -3 -3 -3 -3 -4 -2 -3 -2 -2 -2 -2 -2 -2 -2 -2
-5 -5 -5 -5 -5 -5 -5 -5 -5 -5 -5 -5 -5 -5 -5 -5 -5 -6 -6 -6 -6 -5 -4 -4 -4 -4 -4 -4 -4 -3 -3 -3 -3 -3 -3 -3 -3 -3
-5 -5 -5 -5 -6 -5 -5 -6 -6 -6 -6 -6 -6 -6 -5 -6 -6 -5 -6 -5 -4 -5 -6 -5 -4 -4 -4 -4 -4 -4 -3 -3 -3 -3 -3 -4 -4 -4
-6 -6 -6 -6 -6 -6 -6 -6 -6 -6 -6 -7 -7 -6 -6 -6 -6 -6 -6 -6 -6 -6 -6 -6 -5 -4 -4 -4 -4 -4 -4 -3 -3 -3 -4 -4 -4 -8
-6 -6 -7 -7 -7 -6 -6 -6 -6 -6 -7 -6 -6 -6 -6 -6 -6 -6 -6 -6 -6 -6 -7 -6 -6 -5 -4 -5 -4 -4 -4 -4 -4 -4 -4 -4 -4 -4
Height
826 826 826 826 825 824 824 823 824 823 817 810 811 809 809 808 807 805 802 799 797 796 794 792 790 788 786 783 780 778 777 775 773 771 769 767 765 765
825 824 824 824 823 822 821 821 820 820 819 810 808 807 806 804 803 801 799 797 794 792 790 788 787 785 783 780 778 776 774 772 771 770 769 766 765 763
823 822 822 821 820 819 818 818 817 816 814 809 806 803 800 798 798 796 795 793 791 789 787 784 782 780 778 777 775 773 771 770 768 767 766 766 764 762
822 821 820 819 818 817 815 815 814 813 811 807 804 801 798 795 793 791 789 788 786 784 783 780 777 775 773 771 770 769 767 766 765 764 762 761 761 760
821 819 818 817 815 814 812 811 810 808 806 803 799 798 795 793 788 785 783 781 780 779 776 774 772 770 768 766 764 763 762 761 760 759 760 758 757 757
820 819 817 815 813 811 810 808 807 805 803 800 796 794 792 789 787 783 778 777 773 772 769 768 765 764 762 759 758 757 756 755 755 755 755 755 754 753
818 816 814 813 811 810 808 806 805 803 800 797 794 791 788 786 784 781 777 774 770 768 763 761 759 757 756 755 753 752 751 750 749 749 749 749 750 750
814 812 811 809 808 807 805 804 803 800 797 794 792 789 786 784 782 778 776 773 767 766 762 756 757 752 751 749 748 746 745 744 743 743 743 744 745 745
811 809 807 805 804 802 800 799 798 796 794 792 788 786 782 780 778 774 772 770 766 762 761 753 753 747 745 742 741 740 738 737 737 737 738 738 739 740
808 806 803 801 800 798 795 794 792 790 788 786 783 780 778 776 774 772 769 766 761 757 757 751 748 742 738 736 734 733 732 731 731 731 732 733 734 736
804 802 800 798 796 793 791 788 786 785 783 781 779 776 774 772 770 766 763 762 757 752 750 748 743 739 734 728 727 725 723 723 724 725 726 728 729 731
800 798 796 794 792 790 787 784 781 779 777 774 772 770 768 765 764 762 759 757 754 749 745 744 739 738 730 725 721 719 717 716 717 719 721 723 725 727
796 794 791 789 787 785 783 781 778 775 772 770 767 764 762 758 756 755 753 751 749 745 741 741 736 734 732 724 718 714 713 711 711 713 716 718 720 721
792 790 788 785 783 780 778 775 773 770 767 764 761 758 755 753 750 748 746 744 742 739 735 736 731 730 727 722 716 711 709 707 707 707 711 715 717 719
789 786 783 781 778 775 773 770 768 765 762 760 756 753 751 748 746 743 741 738 735 731 730 729 726 724 722 718 713 708 704 702 702 705 707 709 712 717
784 781 778 776 773 771 768 765 763 761 758 755 752 749 747 744 741 739 736 734 730 725 725 723 721 719 715 711 705 701 700 701 700 700 704 707 707 713
779 776 774 771 768 765 763 761 759 756 754 751 748 745 742 740 737 735 732 730 727 722 718 717 716 714 710 705 700 693 694 695 699 697 701 705 708 711
775 773 770 768 766 763 760 757 755 752 750 748 745 742 739 736 734 731 729 727 723 718 715 712 710 707 704 700 699 695 692 692 693 696 700 703 706 709
772 770 767 765 762 759 757 754 751 749 746 744 741 738 735 732 730 727 724 722 719 715 711 709 707 706 703 700 697 695 695 694 695 696 697 700 702 705
769 767 764 761 758 756 753 751 747 744 741 739 736 733 731 728 725 723 721 718 715 712 708 705 703 701 700 698 696 695 694 694 694 694 697 698 700 703
765 763 760 757 754 751 748 746 743 739 736 733 730 727 725 722 719 717 715 713 710 708 705 701 698 697 694 693 693 692 693 693 694 694 695 697 699 700
761 758 755 752 749 746 743 741 737 734 731 728 724 722 719 717 713 711 709 707 706 704 701 697 694 691 688 687 687 690 690 691 692 693 694 696 697 698
756 753 750 747 744 741 738 735 732 729 726 722 719 716 713 711 708 706 704 702 700 699 697 694 691 689 687 686 685 686 688 689 690 690 691 692 693 694
Wind_Speed
8 9 9 9 9 10 10 11 5 3 3 4 5 6 6 15 26 25 24 21 20 20 22 21 21 21 21 19 17 15 14 14 15 16 15 14 11 9
9 10 11 11 12 12 12 13 14 14 3 13 20 24 29 29 28 26 24 22 22 21 21 22 22 23 22 20 19 18 15 14 14 14 14 13 13 11
8 10 10 11 12 12 12 14 16 16 11 20 29 32 33 32 30 28 27 26 24 22 22 23 24 24 23 21 20 19 17 16 16 14 13 12 11 11
9 10 11 12 13 13 13 14 16 18 18 17 24 28 30 31 29 28 29 28 27 24 23 22 23 23 23 22 21 21 20 19 18 17 15 13 13 12
10 11 13 14 14 15 16 17 18 18 19 18 18 19 24 27 31 32 32 32 29 27 27 26 24 24 24 24 23 22 21 20 20 19 18 16 14 14
12 13 14 14 15 16 16 15 17 18 18 20 22 21 20 21 22 24 28 30 34 32 30 28 27 26 25 24 24 24 22 21 21 21 20 19 18 16
15 15 16 15 15 14 14 17 18 18 18 18 17 18 18 18 19 21 23 26 31 29 21 23 21 23 20 20 21 23 24 23 23 23 22 21 21 20
18 18 18 18 18 18 18 16 15 19 22 21 16 15 18 19 23 18 17 19 10 14 20 31 28 33 31 32 31 29 26 26 25 25 24 23 22 20
19 20 20 19 19 21 21 20 21 19 18 21 22 21 22 23 23 22 20 20 22 25 23 26 27 32 33 33 31 28 26 24 23 23 22 22 21 19
16 16 18 20 21 22 22 20 21 23 23 20 20 22 22 24 23 23 25 24 26 27 17 17 24 27 33 33 33 31 29 27 24 23 22 22 21 19
19 20 20 20 20 18 19 21 21 21 21 22 21 21 21 21 20 22 20 17 18 23 22 17 21 26 29 33 32 30 28 28 27 26 24 22 20 18
22 22 22 22 20 19 20 22 20 22 23 24 24 24 25 26 26 23 23 18 18 17 14 7 20 16 9 24 22 23 25 26 27 24 24 21 18 17
21 23 23 22 20 20 20 22 24 25 26 23 25 27 29 28 25 22 19 20 19 20 24 20 15 17 11 19 26 28 25 27 24 21 21 19 17 19
22 24 24 23 22 23 23 23 24 23 22 24 27 28 27 26 24 23 22 22 23 26 31 24 17 17 19 21 22 22 23 20 18 23 20 15 16 17
21 21 22 22 21 21 21 20 21 23 23 23 23 24 24 23 23 22 21 19 18 22 22 21 24 24 22 24 25 22 12 15 19 17 20 22 22 17
22 23 21 19 19 19 21 21 19 19 18 20 23 23 22 23 21 20 20 18 20 24 21 21 20 19 20 22 26 25 21 6 20 19 21 21 18 16
22 21 19 18 21 22 21 21 19 19 20 20 21 23 23 23 21 21 18 17 17 19 22 22 21 20 22 21 18 18 17 17 17 18 15 13 12 12
19 19 21 20 19 19 20 21 20 19 20 19 21 22 22 22 22 18 19 19 19 19 22 23 22 19 18 16 12 14 10 11 13 15 13 11 12 12
17 18 19 19 18 19 19 18 17 20 20 21 21 22 22 22 19 20 19 15 16 19 23 21 20 16 6 6 8 8 11 11 12 11 11 12 13 13
15 14 15 17 17 15 16 18 20 23 24 24 24 21 20 23 21 19 16 20 18 18 18 20 19 19 11 8 6 5 10 8 9 9 10 11 11 11
14 15 19 19 20 21 22 20 21 22 22 23 25 25 25 25 24 22 23 21 19 18 17 18 23 21 21 17 5 5 5 5 6 5 4 8 6 6
17 18 20 22 22 22 22 22 22 21 20 20 21 24 24 23 21 22 22 19 16 14 16 20 24 17 12 15 8 5 3 4 5 7 9 10 6 4
20 21 21 20 21 23 24 23 23 25 23 25 26 26 25 23 22 22 21 21 21 16 15 16 18 14 7 3 3 5 5 7 7 9 11 13 15 15
Wind_Direction
315 312 307 308 302 297 289 280 251 295 295 303 300 310 329 307 308 316 318 319 310 306 307 308 314 317 314 310 306 302 296 297 298 304 306 303 298 299
313 310 310 310 305 303 297 286 270 253 253 287 290 292 302 306 311 316 317 315 314 311 308 303 306 311 310 303 301 297 290 286 289 292 296 298 292 287
320 318 322 319 316 315 309 301 289 276 253 276 289 300 303 308 313 315 314 314 314 312 309 305 303 304 305 300 296 292 286 281 280 280 281 279 278 282
343 331 331 327 320 321 316 308 303 298 282 274 288 298 304 309 313 316 317 317 316 312 309 306 303 300 299 299 292 289 286 277 274 273 271 269 269 269
344 341 338 334 329 327 322 317 315 312 306 289 284 292 299 304 306 310 316 317 316 312 303 298 298 296 294 294 289 284 283 276 270 266 267 263 260 265
338 335 335 332 328 328 328 327 326 320 317 312 305 295 293 304 302 311 313 311 314 312 308 305 296 292 291 286 283 277 275 277 267 263 260 260 262 262
327 327 327 327 323 321 317 315 318 319 319 318 309 308 302 301 299 306 305 311 310 317 315 311 316 309 296 298 294 284 276 275 268 257 256 256 259 262
322 321 319 318 318 315 313 312 309 306 303 307 301 303 303 304 309 305 305 312 312 312 314 309 313 306 302 294 293 292 287 273 269 260 251 252 255 254
321 320 317 315 315 312 307 305 312 311 299 293 294 295 298 305 307 306 302 295 291 297 298 299 305 300 303 302 300 294 286 274 266 259 251 247 247 247
325 326 323 318 314 310 303 301 308 311 306 307 303 301 301 302 298 296 297 298 299 301 300 293 299 294 304 304 300 296 286 280 267 254 252 247 241 239
318 314 316 316 315 310 295 289 298 301 307 310 305 302 302 302 301 303 294 291 293 295 300 285 290 297 298 301 302 298 283 273 270 255 246 242 239 241
319 318 318 312 310 305 300 300 298 298 304 306 306 305 303 302 302 299 297 284 285 292 287 273 298 311 300 297 303 307 296 272 264 252 243 236 238 233
315 317 320 319 310 306 302 302 299 301 303 301 303 305 306 308 309 308 300 291 279 273 277 282 281 294 284 299 297 301 290 282 248 242 232 234 231 224
312 313 314 317 308 304 303 299 298 302 303 301 301 301 303 308 313 312 307 300 289 274 282 277 272 278 284 291 287 290 291 276 243 222 221 231 216 205
311 311 308 307 306 307 308 305 305 304 306 303 299 298 304 310 312 312 312 309 292 290 290 287 276 281 275 275 276 271 275 261 229 221 202 203 190 184
315 313 312 307 306 306 308 312 315 314 309 301 298 303 309 308 309 314 315 306 298 298 300 297 294 294 281 300 266 256 254 219 204 195 197 192 180 196
309 312 311 311 313 315 317 316 315 315 313 312 312 309 309 309 309 312 316 315 299 294 298 301 303 304 305 296 293 244 239 210 204 169 176 179 194 205
315 315 308 305 307 311 310 309 310 310 312 313 309 306 304 305 307 305 306 300 290 291 293 305 311 318 314 307 288 287 238 209 181 175 185 191 218 220
312 309 302 301 300 304 302 298 292 305 308 307 306 305 301 302 300 303 305 300 298 295 297 303 301 296 295 289 290 279 261 265 246 234 243 236 236 249
313 300 297 302 302 302 300 295 294 306 304 305 303 299 302 303 299 296 285 286 292 297 298 302 298 287 261 261 267 268 228 245 223 227 229 236 254 261
300 298 296 300 298 298 300 299 294 292 296 297 294 297 294 300 290 293 296 287 285 295 296 293 300 304 288 274 249 200 205 240 248 248 226 225 239 250
301 300 299 304 304 303 305 302 297 295 295 293 292 301 303 302 292 291 288 283 283 281 286 292 310 305 290 228 224 196 206 243 236 240 253 247 219 208
310 310 310 307 309 307 306 304 303 303 298 299 301 302 302 296 297 294 288 286 284 269 281 290 299 306 293 287 202 194 250 264 272 269 263 253 250 252